Regional Weather Roundup
Issued by NWS

Home | Current Version | Previous Version | Text Only | Print | Product List | Glossary Off
Versions: 1 2 3 4 5 6 7 8 9 10 11 12 13 14 15 16 17 18 19 20 21 22 23 24 25 26 27 28 29 30 31 32 33 34 35 36 37 38 39 40 41 42 43 44 45 46 47 48 49 50

000
ASUS43 KMKX 281811
RWRWI

WISCONSIN REGIONAL WEATHER ROUNDUP
NATIONAL WEATHER SERVICE MILWAUKEE/SULLIVAN WI
100 PM CDT TUE MAR 28 2017

NOTE: "FAIR" INDICATES FEW OR NO CLOUDS BELOW 12,000 FEET WITH NO
SIGNIFICANT WEATHER AND/OR OBSTRUCTIONS TO VISIBILITY.

WIZ001-002-006>008-014>016-023>028-281900-
NORTHWEST WISCONSIN

CITY           SKY/WX    TMP DP  RH WIND       PRES   REMARKS
SUPERIOR ARPT  SUNNY     57  32  38 S3        30.17S
6HR MIN TEMP:  23; 6HR MAX TEMP:  57;

ASHLAND        SUNNY     57  29  34 SE5       30.17S
6HR MIN TEMP:  21; 6HR MAX TEMP:  57;

HAYWARD        SUNNY     56  22  26 CALM      30.16S
6HR MIN TEMP:  22; 6HR MAX TEMP:  57;

SIREN            N/A     57  25  28 CALM      30.16S
6HR MIN TEMP:  24; 6HR MAX TEMP:  58;

CUMBERLAND     SUNNY     52  30  43 SW3       30.16S
RICE LAKE      SUNNY     54  31  41 CALM      30.17F
6HR MIN TEMP:  28; 6HR MAX TEMP:  54;

CHETEK         SUNNY     54  33  45 CALM      30.16F
6HR MIN TEMP:  25; 6HR MAX TEMP:  54;

LADYSMITH      SUNNY     55  33  44 CALM      30.17F
6HR MIN TEMP:  27; 6HR MAX TEMP:  55;

EAU CLAIRE     SUNNY     53  37  54 SE5       30.16S
6HR MIN TEMP:  29; 6HR MAX TEMP:  53;

MENOMONIE      SUNNY     55  37  51 E3        30.17F
6HR MIN TEMP:  28; 6HR MAX TEMP:  55;

NEW RICHMOND   SUNNY     57  36  44 S3        30.16S
6HR MIN TEMP:  29; 6HR MAX TEMP:  57;

OSCEOLA        SUNNY     59  33  37 E7        30.18F
6HR MIN TEMP:  27; 6HR MAX TEMP:  59;

$$

WIZ003>005-009-010-017-018-281900-
NORTH CENTRAL WISCONSIN

CITY           SKY/WX    TMP DP  RH WIND       PRES   REMARKS
MANITOWISH WTR SUNNY     52  28  39 CALM      30.16S
6HR MIN TEMP:  21; 6HR MAX TEMP:  52;

ARBOR VITAE    SUNNY     52  29  40 CALM      30.15R
6HR MIN TEMP:  23; 6HR MAX TEMP:  52;

WOODRUFF       SUNNY     52  29  40 CALM      30.15R
6HR MIN TEMP:  23; 6HR MAX TEMP:  52;

RHINELANDER    SUNNY     54  31  41 SE5       30.15F
6HR MIN TEMP:  23; 6HR MAX TEMP:  54;

EAGLE RIVER    SUNNY     53  28  39 E5        30.15R
6HR MIN TEMP:  23; 6HR MAX TEMP:  53;

LAND O LAKES   SUNNY     54  27  35 N6        30.16S
6HR MIN TEMP:  22; 6HR MAX TEMP:  55;

PHILLIPS       SUNNY     53  28  37 S3        30.15S
6HR MIN TEMP:  20; 6HR MAX TEMP:  54;

TOMAHAWK       SUNNY     53  31  42 SW3       30.16S
6HR MIN TEMP:  20; 6HR MAX TEMP:  53;

MEDFORD        SUNNY     49  33  52 CALM      30.16R
6HR MIN TEMP:  26; 6HR MAX TEMP:  49;

MERRILL        SUNNY     52  33  47 E7        30.17S
6HR MIN TEMP:  23; 6HR MAX TEMP:  52;

$$

WIZ029-030-035-036-043>047-281900-
CENTRAL WISCONSIN

CITY           SKY/WX    TMP DP  RH WIND       PRES   REMARKS
WAUSAU         SUNNY     52  31  44 SE6       30.14F
6HR MIN TEMP:  28; 6HR MAX TEMP:  52;

MOSINEE        MOSUNNY   52  36  54 CALM      30.16F
MARSHFIELD     SUNNY     48  35  60 E5        30.16S
6HR MIN TEMP:  28; 6HR MAX TEMP:  48;

STEVENS POINT  SUNNY     51  33  50 N5        30.16S
6HR MIN TEMP:  36; 6HR MAX TEMP:  51;

WAUPACA        SUNNY     56  36  47 NE5       30.17R
6HR MIN TEMP:  37; 6HR MAX TEMP:  56;

WAUTOMA        SUNNY     54  35  48 VRB3      30.16S
6HR MIN TEMP:  40; 6HR MAX TEMP:  54;

WISC RAPIDS    SUNNY     54  34  46 E7        30.17S
6HR MIN TEMP:  38; 6HR MAX TEMP:  54;

CAMP DOUGLAS   MOSUNNY   54  37  54 CALM      30.15S
$$

WIZ011>013-019>022-031-037>040-048>050-281900-
NORTHEAST WISCONSIN

CITY           SKY/WX    TMP DP  RH WIND       PRES   REMARKS
ANTIGO         SUNNY     50  35  55 CALM      30.16F
6HR MIN TEMP:  27; 6HR MAX TEMP:  50;

SHAWANO        SUNNY     53  33  46 E8        30.17S
OCONTO         SUNNY     41  34  76 E5        30.19S
6HR MIN TEMP:  29; 6HR MAX TEMP:  41;

STURGEON BAY   CLOUDY    37  34  89 N7        30.17S WCI  32
6HR MIN TEMP:  31; 6HR MAX TEMP:  37;

GREEN BAY      SUNNY     46  39  76 NE12      30.18R
6HR MIN TEMP:  33; 6HR MAX TEMP:  47;

MANITOWOC      PTSUNNY   41  37  86 NE7       30.18R
6HR MIN TEMP:  35; 6HR MAX TEMP:  42;

APPLETON       MOSUNNY   50  34  53 N8        30.15R
CLINTONVILLE   SUNNY     52  32  46 NE7       30.16S
OSHKOSH        SUNNY     48  39  71 E8        30.16S
6HR MIN TEMP:  34; 6HR MAX TEMP:  48;

$$

WIZ032>034-041-042-053>061-281900-
SOUTHWEST WISCONSIN

CITY           SKY/WX    TMP DP  RH WIND       PRES   REMARKS
LA CROSSE      SUNNY     54  40  59 NW7       30.15F
6HR MIN TEMP:  32; 6HR MAX TEMP:  54;

SPARTA         SUNNY     54  37  51 E9        30.16S
6HR MIN TEMP:  35; 6HR MAX TEMP:  54;

VIROQUA        SUNNY     52  37  55 CALM      30.14F
6HR MIN TEMP:  40; 6HR MAX TEMP:  52;

BOSCOBEL       PTSUNNY   51  37  58 E8        30.16F
6HR MIN TEMP:  44; 6HR MAX TEMP:  51;

PRAIRIE DU CHI CLOUDY    50  39  65 E9        30.15S
6HR MIN TEMP:  44; 6HR MAX TEMP:  50;

PLATTEVILLE    CLOUDY    45  41  86 NE8       30.16S
6HR MIN TEMP:  43; 6HR MAX TEMP:  46;

$$

WIZ056-057-062-063-064-067-068-281900-
SOUTH CENTRAL WISCONSIN

CITY           SKY/WX    TMP DP  RH WIND       PRES   REMARKS
REEDSBURG      MOSUNNY   51  37  60 E9        30.15F
6HR MIN TEMP:  39; 6HR MAX TEMP:  51;

BARABOO/DELLS  MOSUNNY   49  35  58 NE3       30.15F
6HR MIN TEMP:  39; 6HR MAX TEMP:  51;

LONE ROCK      MOSUNNY   51  38  60 E7        30.15F
6HR MIN TEMP:  43; 6HR MAX TEMP:  51;

MINERAL POINT  CLOUDY    46  41  81 E5        30.15S
MADISON        MOSUNNY   50  38  63 N8        30.14F
6HR MIN TEMP:  40; 6HR MAX TEMP:  51;

MIDDLETON      PTSUNNY   51  40  66 NE7       30.15F
6HR MIN TEMP:  42; 6HR MAX TEMP:  52;

WATERTOWN      MOSUNNY   51  38  61 N8        30.14S
6HR MIN TEMP:  38; 6HR MAX TEMP:  51;

MONROE         CLOUDY    45  37  76 NE6       30.14F
JANESVILLE     PTSUNNY   50  37  62 NE8       30.14S
$$

WIZ051-052-058>065-066-070>072-281900-
SOUTHEAST WISCONSIN

CITY           SKY/WX    TMP DP  RH WIND       PRES   REMARKS
MILWAUKEE      MOSUNNY   43  37  79 NE13      30.15S
6HR MIN TEMP:  40; 6HR MAX TEMP:  43;

WAUKESHA       SUNNY     50  36  57 NE17      30.14S
MILWAUKEE/TIMM SUNNY     46  36  66 NE7       30.15S
RACINE         CLOUDY    41  36  82 N14       30.16S
6HR MIN TEMP:  39; 6HR MAX TEMP:  42;

KENOSHA        PTSUNNY   45  38  76 NE14      30.14S
6HR MIN TEMP:  39; 6HR MAX TEMP:  46;

FOND DU LAC    SUNNY     49  37  63 NE12      30.16S
6HR MIN TEMP:  35; 6HR MAX TEMP:  49;

SHEBOYGAN      PTSUNNY   42  38  85 NE12      30.16R
6HR MIN TEMP:  38; 6HR MAX TEMP:  44;

WEST BEND      SUNNY     50  34  53 NE8       30.14S
JUNEAU         SUNNY     51  38  60 N8        30.15F
6HR MIN TEMP:  35; 6HR MAX TEMP:  51;

$$

LSZ147-162-281900-
LAKE SUPERIOR

STATION/POSITION TIME  TEMP    WIND        PRES    WAVE
                       AIR SEA DIR/SP/G            HT/PER
                 (UTC) (F)     (DEG/KT/KT) (MB)    (FT/S)
DEVILS ISLAND    1800   43     220/  4/  5 1022.5S
PORT WING        1730   39     330/  3/  4 1022.0S
SAXON HARBOR     1730   35      30/  5/  6 1022.0R
$$

LMZ867-665-643>646-281900-
LAKE MICHIGAN

STATION/POSITION TIME  TEMP    WIND        PRES    WAVE
                       AIR SEA DIR/SP/G            HT/PER
                 (UTC) (F)     (DEG/KT/KT) (MB)    (FT/S)
CHAMBERS ISLAND  1740   34     330/  5/  5 1022.4R
NORTHPORT PIER   1740   33     320/  3/  6 1022.7R
SISTER BAY       1721   33     340/ 12/ 13   N/A
KEWAUNEE LAKESHO 1748   35      5



USA.gov is the U.S. government's official web portal to all federal, state and local government web resources and services.